Location: Allison Elementary School
(34.0784°N, 117.7317°W)
Time: 10:08:36
(UTC+00:00)

Cosmos 1633 - Pass Details

Date: 15 November 2019
Orbit: 465 x 482 km, 82.5° (Epoch: 13 December)

Event Time Altitude Azimuth Distance (km) Brightness Sun altitude
Rises 02:17:44 0° 350° (N) 2,550 6.2 -18.7°
Reaches altitude 10° 02:19:51 10° 348° (NNW) 1,665 5.3 -19.2°
Maximum altitude 02:23:28 68° 265° (W) 521 2.8 -19.9°
Drops below altitude 10° 02:27:03 10° 182° (S) 1,646 5.4 -20.6°
Sets 02:29:07 0° 180° (S) 2,518 6.3 -21.0°
